Regional Weather Roundup
Issued by NWS

Home | Current Version | Previous Version | Graphics & Text | Print | Product List | Glossary On
Versions: 1 2 3 4 5 6 7 8 9 10 11 12 13 14 15 16 17 18 19 20 21 22 23 24 25 26 27 28 29 30 31 32 33 34 35 36 37 38 39 40 41 42 43 44 45 46 47 48 49 50
000
ASUS45 KSLC 290210
RWRUT

UTAH REGIONAL WEATHER ROUNDUP
NATIONAL WEATHER SERVICE SALT LAKE CITY UT
800 PM MDT FRI AUG 28 2015

UTZ001>011-023>025-290300-

NORTHERN UTAH

CITY           SKY/WX    TMP DP  RH WIND       PRES   REMARKS
BRIGHAM CITY   CLEAR     87  36  16 E3        30.05F
HILL AFB       PTCLDY    86  35  16 E3        30.09F
LOGAN          CLEAR     83  40  21 SE3       30.06F
OGDEN          PTCLDY    86  35  16 NE3       30.05F
PROVO AIRPORT  PTCLDY    81  48  32 CALM      30.08S
SALT LAKE CITY MOCLDY    87  39  18 N8        30.03F
VERNAL         CLEAR     77  46  33 W3        30.17S
WENDOVER       PTCLDY    90  37  15 SW7       30.02S
HEBER CITY     PTCLDY    73  43  33 CALM      30.16S
WEST JORDAN    CLEAR     88  37  16 CALM      30.08S

$$

UTZ012>022-026-027-290300-

SOUTHERN/CENTRAL UTAH

CITY           SKY/WX    TMP DP  RH WIND       PRES   REMARKS
BLANDING       CLEAR     79  29  16 N8        30.25S
BRYCE CANYON   PTCLDY    68  47  46 S6        30.35R
CEDAR CITY     PTCLDY    79  39  23 SW9       30.15F
DELTA          CLEAR     87  30  12 NW3       30.08S
HANKSVILLE     CLEAR     86  32  14 CALM      30.11S
MILFORD        CLEAR     88  36  15 S6        30.07F
MOAB/CYNLANDS  CLEAR     85  35  16 NE3       30.08S
PRICE          PTCLDY    80  34  19 CALM      30.20S
ST GEORGE      PTCLDY    99  39  12 NW5       29.93S HX  94
KANAB          CLEAR     79  61  53 CALM      30.17S

$$

REGIONAL REPORTS     COLORADO/ARIZONA

CITY           SKY/WX    TMP DP  RH WIND       PRES   REMARKS
CRAIG, CO      CLEAR     67  45  45 CALM      30.26R
GRAND JUNCTION CLEAR     81  43  26 CALM      30.13R
RIFLE          CLEAR     77  43  29 CALM      30.20R
MONTROSE       CLEAR     74  48  39 CALM      30.22S
CORTEZ         CLEAR     77  35  21 N7        30.17R
PAGE, AZ       CLEAR     88  41  19 CALM      30.06S
GRAND CANYON   CLEAR     74  43  32 CALM      30.27S
KINGMAN        PTCLDY    92  48  22 W8        29.98F
FLAGSTAFF      PTCLDY    68  56  65 CALM      30.31S

$$

REGIONAL REPORTS    NEVADA/IDAHO/WYOMING

CITY           SKY/WX    TMP DP  RH WIND       PRES   REMARKS
LAS VEGAS, NV  MOCLDY   101  51  18 S3        29.81F HX  98
ELY            CLEAR     75  43  31 S12       30.18S
ELKO           CLOUDY    78  48  34 N9        30.07F
POCATELLO, ID  CLEAR     79  44  28 E7        30.04F
EVANSTON, WY   CLEAR     73  34  23 NW5       30.30R
ROCK SPRINGS   PTCLDY    73  29  19 E8        30.27S
KEMMERER       PTCLDY    72  32  23 W6        30.32R

$$


USA.gov is the U.S. government's official web portal to all federal, state and local government web resources and services.